Boone, NC

7:16 AM EST on February 11, 2016 (GMT -0500)
Boone

Weather History for KTNB - November, 2012

Change the Weather History Date:

Saturday, November 3, 2012

  Actual Average (KGEV) Record (KGEV)
Temperature  
Mean Temperature 44 °F -  
Max Temperature 57 °F 60 °F 77 °F (1974)
Min Temperature 30 °F 36 °F 22 °F (1988)
Degree Days  
Heating Degree Days 22    
Moisture  
Dew Point 26 °F    
Average Humidity 59    
Maximum Humidity 93    
Minimum Humidity 20    
Precipitation  
Precipitation 0.00 in - - ()
Sea Level Pressure  
Sea Level Pressure 30.05 in    
Wind  
Wind Speed 3 mph (WNW)    
Max Wind Speed 21 mph    
Max Gust Speed 28 mph    
Visibility 10 miles    
Events      
Averages and records for this station are not official NWS values.
T = Trace of Precipitation, MM = Missing Value Source: NWS Daily Summary

Daily Weather History Graph

Daily Weather History Graph

Search for Another Location

Airport or City:

Trip Planner

Search our weather history database for the weather conditions in past years. The results will help you decide how hot, cold, wet, or windy it might be!

Date:

Astronomy

Nov. 03, 2012 Rise Set
Actual Time 7:51 AM EDT 6:27 PM EDT
Civil Twilight 7:25 AM EDT 6:54 PM EDT
Nautical Twilight 6:54 AM EDT 7:25 PM EDT
Astronomical Twilight 6:24 AM EDT 7:55 PM EDT
Moon 10:10 PM EDT (11/3) 11:52 AM EDT (11/3)
Length of Visible Light 11h 29m
Length of Day
10h 36m
Waning Gibbous, 80% of the Moon is Illuminated
Nov 3
Waning Gibbous
Nov 6
Last Quarter
Nov 13
New
Nov 20
First Quarter
Nov 28
Full

Hourly Weather History & Observations

Time (EDT) Temp. Windchill Dew Point Humidity Pressure Visibility Wind Dir Wind Speed Gust Speed Precip Events Conditions
12:15 AM 35.6 °F - 28.4 °F 75% 29.98 in 10.0 mi Calm Calm - N/A   Clear
12:35 AM 33.8 °F - 28.4 °F 81% 29.99 in 10.0 mi Calm Calm - N/A   Clear
12:55 AM 33.8 °F - 28.4 °F 81% 29.99 in 10.0 mi Calm Calm - N/A   Clear
1:15 AM 32.0 °F - 28.4 °F 87% 29.99 in 10.0 mi Calm Calm - N/A   Clear
1:35 AM 32.0 °F 28.7 °F 28.4 °F 87% 30.00 in 10.0 mi SSE 3.5 mph - N/A   Clear
1:55 AM 32.0 °F - 28.4 °F 87% 30.00 in 10.0 mi Calm Calm - N/A   Clear
2:15 AM 30.2 °F - 28.4 °F 93% 30.00 in 10.0 mi Calm Calm - N/A   Clear
2:35 AM 32.0 °F - 26.6 °F 80% 30.00 in 10.0 mi Calm Calm - N/A   Clear
2:55 AM 32.0 °F 28.7 °F 28.4 °F 87% 30.01 in 10.0 mi SSE 3.5 mph - N/A   Clear
3:15 AM 33.8 °F - 28.4 °F 81% 30.01 in 10.0 mi Calm Calm - N/A   Clear
3:35 AM 32.0 °F - 26.6 °F 80% 30.01 in 10.0 mi Calm Calm - N/A   Clear
3:55 AM 32.0 °F - 26.6 °F 80% 30.01 in 10.0 mi Calm Calm - N/A   Clear
4:15 AM 32.0 °F - 26.6 °F 80% 30.01 in 10.0 mi Calm Calm - N/A   Clear
4:35 AM 32.0 °F - 26.6 °F 80% 30.00 in 10.0 mi Calm Calm - N/A   Clear
4:55 AM 32.0 °F - 26.6 °F 80% 30.01 in 10.0 mi Calm Calm - N/A   Clear
5:15 AM 32.0 °F - 26.6 °F 80% 30.02 in 10.0 mi Calm Calm - N/A   Clear
5:35 AM 33.8 °F - 26.6 °F 75% 30.03 in 10.0 mi Calm Calm - N/A   Clear
5:55 AM 33.8 °F 30.8 °F 26.6 °F 75% 30.03 in 10.0 mi SSE 3.5 mph - N/A   Clear
6:15 AM 32.0 °F - 26.6 °F 80% 30.03 in 10.0 mi Calm Calm - N/A   Clear
6:35 AM 32.0 °F - 26.6 °F 80% 30.04 in 10.0 mi Calm Calm - N/A   Clear
6:55 AM 35.6 °F 30.7 °F 26.6 °F 70% 30.04 in 10.0 mi West 5.8 mph - N/A   Clear
7:15 AM 33.8 °F 28.6 °F 26.6 °F 75% 30.05 in 10.0 mi WNW 5.8 mph - N/A   Clear
7:35 AM 35.6 °F 31.7 °F 26.6 °F 70% 30.06 in 10.0 mi West 4.6 mph - N/A   Clear
7:55 AM 33.8 °F - 26.6 °F 75% 30.06 in 10.0 mi Calm Calm - N/A   Clear
8:15 AM 33.8 °F 30.8 °F 26.6 °F 75% 30.07 in 10.0 mi South 3.5 mph - N/A   Clear
8:35 AM 32.0 °F - 26.6 °F 80% 30.09 in 10.0 mi Calm Calm - N/A   Clear
8:55 AM 32.0 °F - 26.6 °F 80% 30.10 in 10.0 mi Calm Calm - N/A   Clear
9:15 AM 35.6 °F 32.8 °F 26.6 °F 70% 30.10 in 10.0 mi WNW 3.5 mph - N/A   Clear
9:35 AM 35.6 °F 28.0 °F 26.6 °F 70% 30.10 in 10.0 mi West 10.4 mph - N/A   Clear
9:55 AM 37.4 °F 34.9 °F 26.6 °F 65% 30.11 in 10.0 mi WNW 3.5 mph - N/A   Clear
10:15 AM 37.4 °F 34.9 °F 26.6 °F 65% 30.11 in 10.0 mi NNW 3.5 mph - N/A   Clear
10:35 AM 37.4 °F 33.8 °F 26.6 °F 65% 30.11 in 10.0 mi North 4.6 mph - N/A   Clear
10:55 AM 37.4 °F - 26.6 °F 65% 30.11 in 10.0 mi Calm Calm - N/A   Clear
11:15 AM 41.0 °F 35.8 °F 26.6 °F 57% 30.10 in 10.0 mi NW 8.1 mph - N/A   Clear
11:35 AM 44.6 °F 38.4 °F 24.8 °F 46% 30.10 in 10.0 mi WNW 12.7 mph 17.3 mph N/A   Clear
11:55 AM 46.4 °F 40.1 °F 21.2 °F 37% 30.09 in 10.0 mi WNW 15.0 mph 24.2 mph N/A   Clear
12:15 PM 50.0 °F - 21.2 °F 32% 30.09 in 10.0 mi WNW 15.0 mph 24.2 mph N/A   Clear
12:35 PM 50.0 °F - 19.4 °F 30% 30.08 in 10.0 mi WNW 11.5 mph 21.9 mph N/A   Clear
12:55 PM 51.8 °F - 19.4 °F 28% 30.07 in 10.0 mi WNW 18.4 mph 25.3 mph N/A   Clear
1:15 PM 53.6 °F - 19.4 °F 26% 30.07 in 10.0 mi WNW 16.1 mph 24.2 mph N/A   Clear
1:35 PM 53.6 °F - 17.6 °F 24% 30.06 in 10.0 mi WNW 16.1 mph 27.6 mph N/A   Clear
1:55 PM 53.6 °F - 17.6 °F 24% 30.06 in 10.0 mi WNW 16.1 mph 25.3 mph N/A   Clear
2:15 PM 53.6 °F - 15.8 °F 22% 30.05 in 10.0 mi WNW 20.7 mph 27.6 mph N/A   Clear
2:35 PM 55.4 °F - 15.8 °F 21% 30.05 in 10.0 mi West 15.0 mph 21.9 mph N/A   Clear
2:55 PM 55.4 °F - 14.0 °F 20% 30.05 in 10.0 mi WNW 16.1 mph 20.7 mph N/A   Clear
3:15 PM 57.2 °F - 15.8 °F 20% 30.04 in 10.0 mi WNW 12.7 mph 18.4 mph N/A   Clear
3:35 PM 55.4 °F - 17.6 °F 23% 30.05 in 10.0 mi WNW 12.7 mph 17.3 mph N/A   Clear
3:55 PM 55.4 °F - 17.6 °F 23% 30.05 in 10.0 mi NW 11.5 mph - N/A   Clear
4:15 PM 55.4 °F - 17.6 °F 23% 30.05 in 10.0 mi WNW 12.7 mph - N/A   Clear
4:35 PM 55.4 °F - 17.6 °F 23% 30.05 in 10.0 mi WNW 10.4 mph - N/A   Clear
4:55 PM 55.4 °F - 17.6 °F 23% 30.05 in 10.0 mi WNW 10.4 mph - N/A   Clear
5:15 PM 53.6 °F - 19.4 °F 26% 30.05 in 10.0 mi NW 6.9 mph - N/A   Scattered Clouds
5:35 PM 53.6 °F - 19.4 °F 26% 30.04 in 10.0 mi West 5.8 mph - N/A   Scattered Clouds
5:55 PM 53.6 °F - 19.4 °F 26% 30.03 in 10.0 mi WNW 4.6 mph - N/A   Scattered Clouds
6:15 PM 51.8 °F - 21.2 °F 30% 30.03 in 10.0 mi Calm Calm - N/A   Mostly Cloudy
6:35 PM 50.0 °F - 24.8 °F 37% 30.03 in 10.0 mi Calm Calm - N/A   Mostly Cloudy
6:55 PM 48.2 °F - 28.4 °F 46% 30.04 in 10.0 mi Calm Calm - N/A   Mostly Cloudy
7:15 PM 48.2 °F - 30.2 °F 50% 30.03 in 10.0 mi Calm Calm - N/A   Mostly Cloudy
7:35 PM 46.4 °F - 32.0 °F 57% 30.04 in 10.0 mi Calm Calm - N/A   Mostly Cloudy
7:55 PM 44.6 °F - 32.0 °F 61% 30.04 in 10.0 mi Calm Calm - N/A   Mostly Cloudy
8:15 PM 44.6 °F - 32.0 °F 61% 30.04 in 10.0 mi Calm Calm - N/A   Scattered Clouds
8:35 PM 44.6 °F - 32.0 °F 61% 30.05 in 10.0 mi Calm Calm - N/A   Mostly Cloudy
8:55 PM 42.8 °F - 32.0 °F 66% 30.04 in 10.0 mi Calm Calm - N/A   Scattered Clouds
9:15 PM 42.8 °F - 32.0 °F 66% 30.04 in 10.0 mi Calm Calm - N/A   Scattered Clouds
9:35 PM 41.0 °F - 32.0 °F 70% 30.05 in 10.0 mi Calm Calm - N/A   Mostly Cloudy
9:55 PM 41.0 °F - 32.0 °F 70% 30.05 in 10.0 mi Calm Calm - N/A   Mostly Cloudy
10:15 PM 39.2 °F - 32.0 °F 75% 30.04 in 10.0 mi Calm Calm - N/A   Clear
10:35 PM 37.4 °F - 32.0 °F 81% 30.04 in 10.0 mi Calm Calm - N/A   Clear
10:55 PM 39.2 °F - 32.0 °F 75% 30.04 in 7.0 mi Calm Calm - N/A   Clear
11:15 PM 39.2 °F - 33.8 °F 81% 30.04 in 7.0 mi Calm Calm - N/A   Scattered Clouds
11:35 PM 39.2 °F - 33.8 °F 81% 30.03 in 7.0 mi Calm Calm - N/A   Scattered Clouds
11:55 PM 39.2 °F - 33.8 °F 81% 30.03 in 10.0 mi Calm Calm - N/A   Scattered Clouds